Epoch 2023 Feb. 25.0 TT = JDT 2460000.5 T 2022 July 10.36217 TT Rudenko q 1.9556316 (2000.0) P Q n 0.13118059 Peri. 197.42866 +0.96890079 -0.24654591 a 3.8360977 Node 176.62355 +0.24725094 +0.96800781 e 0.4902029 Incl. 21.02172 -0.00991072 +0.04664756 P 7.51 >From 45 observations 2022 Sept. 2-Nov. 27, mean residual 0".5.
m1 = 16.0 + 5 logΔ + 10.0 log r